User: anonymous   Login
Location: Solon
(41.3849°N, 81.4081°W)
Time: 12:39:09
(UTC-05:00)
Language:

CZ-2C R/B - Orbit

View from above orbital plane
View from above orbital plane
View from above satellite
View from above satellite

Ground track
Ground track

The orbit data is extracted from the following two-line orbital elements,

1 28480U 04046B   15031.03389515  .00000288  00000-0  12584-3 0  5425
2 28480 098.1174 174.8738 0141274 267.9448 228.8945 14.25431219530548
Epoch (UTC): 31 January 2015 00:48:48
Eccentricity: 0.0141274
inclination: 98.1174°
perigee height: 705 km
apogee height: 908 km
right ascension of ascending node: 174.8738°
argument of perigee: 267.9448°
revolutions per day: 14.25431219
mean anomaly at epoch: 228.8945°
orbit number at epoch: 53054

The dashed part of the orbit path shows where the satellite is in the earth's shadow,  

DLR